TimeEST,TemperatureF,Dew PointF,Humidity,Sea Level PressureIn,VisibilityMPH,Wind Direction,Wind SpeedMPH,Gust SpeedMPH,PrecipitationIn,Events,Conditions,WindDirDegrees,DateUTC
12:07 AM,30.2,30.2,100,29.91,2.5,Calm,Calm,-,0.00,Snow,Light Snow,0,2013-02-25 05:07:00
12:32 AM,30.2,28.4,93,29.92,3.0,Calm,Calm,-,0.00,Snow,Light Snow,0,2013-02-25 05:32:00
12:39 AM,30.2,28.4,93,29.92,4.0,Calm,Calm,-,0.00,Snow,Light Snow,0,2013-02-25 05:39:00
12:51 AM,31.1,29.1,92,30.68,5.0,Calm,Calm,-,0.00,Snow,Light Snow,0,2013-02-25 05:51:00
2:51 AM,31.1,29.1,92,30.71,10.0,Calm,Calm,-,0.00,Snow,Light Snow,0,2013-02-25 07:51:00
3:51 AM,30.0,29.1,96,30.72,10.0,Calm,Calm,-,0.00,Snow,Light Snow,0,2013-02-25 08:51:00
4:51 AM,30.0,28.0,92,30.75,10.0,Calm,Calm,-,0.00,Snow,Light Snow,0,2013-02-25 09:51:00
5:04 AM,30.2,28.4,93,29.99,10.0,Calm,Calm,-,0.00,Snow,Light Snow,0,2013-02-25 10:04:00
5:27 AM,28.4,26.6,93,30.00,1.2,Calm,Calm,-,0.00,Snow,Light Snow,0,2013-02-25 10:27:00
5:30 AM,28.4,26.6,93,30.00,0.5,Calm,Calm,-,0.00,Snow,Light Snow,0,2013-02-25 10:30:00
5:37 AM,28.4,26.6,93,30.00,1.0,Calm,Calm,-,0.00,Snow,Light Snow,0,2013-02-25 10:37:00
5:39 AM,28.4,26.6,93,30.00,3.0,Calm,Calm,-,0.00,Snow,Light Snow,0,2013-02-25 10:39:00
6:51 AM,30.0,28.0,92,30.79,10.0,Calm,Calm,-,0.00,,Overcast,0,2013-02-25 11:51:00
7:51 AM,30.0,29.1,96,30.82,10.0,Calm,Calm,-,N/A,,Overcast,0,2013-02-25 12:51:00
8:51 AM,32.0,30.0,92,30.83,10.0,Calm,Calm,-,N/A,,Overcast,0,2013-02-25 13:51:00
9:51 AM,32.9,30.0,89,30.85,10.0,Calm,Calm,-,0.01,,Mostly Cloudy,0,2013-02-25 14:51:00
11:29 AM,35.6,30.2,81,30.10,10.0,Calm,Calm,-,0.04,,Mostly Cloudy,0,2013-02-25 16:29:00
11:36 AM,35.6,30.2,81,30.10,10.0,Calm,Calm,-,0.05,,Overcast,0,2013-02-25 16:36:00
11:43 AM,35.6,30.2,81,30.10,10.0,East,4.6,-,0.06,,Overcast,90,2013-02-25 16:43:00
11:51 AM,36.0,31.1,82,30.87,10.0,East,4.6,-,0.07,,Overcast,100,2013-02-25 16:51:00
12:51 PM,36.0,31.1,82,30.87,10.0,Calm,Calm,-,0.05,,Overcast,0,2013-02-25 17:51:00
1:09 PM,35.6,30.2,81,30.11,10.0,Calm,Calm,-,0.01,,Overcast,0,2013-02-25 18:09:00
1:51 PM,36.0,32.0,86,30.90,10.0,Calm,Calm,-,0.02,,Overcast,0,2013-02-25 18:51:00
2:51 PM,36.0,32.0,86,30.91,10.0,Calm,Calm,-,0.02,,Overcast,0,2013-02-25 19:51:00
3:51 PM,36.0,32.0,86,30.92,10.0,Calm,Calm,-,0.02,,Overcast,0,2013-02-25 20:51:00
4:51 PM,36.0,32.9,89,30.93,10.0,Calm,Calm,-,0.01,,Overcast,0,2013-02-25 21:51:00
5:51 PM,34.9,32.0,89,30.94,10.0,Calm,Calm,-,0.01,,Overcast,0,2013-02-25 22:51:00
6:51 PM,34.0,32.0,92,30.95,10.0,Calm,Calm,-,N/A,,Overcast,0,2013-02-25 23:51:00
7:51 PM,32.9,32.0,96,30.98,9.0,Calm,Calm,-,N/A,,Overcast,0,2013-02-26 00:51:00
8:51 PM,32.9,32.0,96,30.98,10.0,Calm,Calm,-,N/A,,Mostly Cloudy,0,2013-02-26 01:51:00
9:51 PM,32.9,31.1,93,30.98,8.0,Calm,Calm,-,N/A,,Overcast,0,2013-02-26 02:51:00
10:51 PM,32.0,30.0,92,30.98,4.0,Calm,Calm,-,N/A,,Mostly Cloudy,0,2013-02-26 03:51:00
11:18 PM,30.2,28.4,93,30.22,1.8,Calm,Calm,-,N/A,,Clear,0,2013-02-26 04:18:00
11:44 PM,28.4,26.6,93,30.23,1.0,Calm,Calm,-,N/A,,Clear,0,2013-02-26 04:44:00
11:51 PM,28.0,27.1,96,31.00,0.5,Calm,Calm,-,N/A,Fog,Light Freezing Fog,0,2013-02-26 04:51:00
11:58 PM,26.6,26.6,100,30.24,0.2,Calm,Calm,-,N/A,Fog,Light Freezing Fog,0,2013-02-26 04:58:00